Home > Weather > Brest > Past weeks

Flag for France Weather for the Past 2 Weeks in Brest, Brittany, France

Now
50 °F

Fog.


Feels Like: 50 °F
Forecast: 52 / 61 °F
Wind: 2 mph from North

Location: Brest Airport

Current Time: May 6, 2016 at 8:38:58 AM

Latest Report: May 6, 2016 at 8:00 AM


Visibility: 1 mi

Pressure: 29.77 "Hg

Humidity: 94%

Dew Point: 48 °F

Location of BrestLocation

Historic Weather in Brest — Graph

°F

Brest Temperature Yesterday

Maximum temperature yesterday: 70 °F (at 1:30 PM)
Minimum temperature yesterday: 43 °F (at 3:30 AM)
Average temperature yesterday: 57 °F

High & Low Weather Summary for the Past Weeks

 TemperatureHumidityPressure
High70 °F (May 5, 1:30 PM)100% (Apr 22, 3:30 AM)30.42 "Hg (Apr 22, 3:30 AM)
Low32 °F (Apr 28, 5:00 AM)33% (May 5, 2:00 PM)29.77 "Hg (May 6, 5:30 AM)
Average49 °F75%30.13 "Hg
* Reported Apr 21 7:00 AM — May 6 7:30 AM, Brest, Weather by CustomWeather, © 2016

Note: Actual official high and low records may vary slightly from our data, if they occured in-between our weather recording intervals... More about our weather records

Advertising

Brest Weather History for the Previous 24 Hours

Scroll right to see more
 ConditionsComfort  
Time TempWeatherWind HumidityBarometerVisibility
7:30 AM
Fri, May 6
48 °FFog.5 mph94%29.77 "Hg1 mi
7:00 AM48 °FFog.3 mph94%29.77 "Hg1 mi
6:30 AM48 °FFog.3 mph100%29.77 "Hg2 mi
6:00 AM48 °FFog.5 mph94%29.77 "Hg2 mi
5:30 AM48 °FFog.5 mph94%29.77 "Hg2 mi
5:00 AM48 °FFog.3 mph94%29.80 "Hg2 mi
4:30 AM48 °FFog.3 mph100%29.80 "Hg3 mi
4:00 AM48 °FFog.3 mph94%29.80 "Hg3 mi
3:30 AM48 °FFog.3 mph94%29.80 "Hg3 mi
3:00 AM48 °FClear.3 mph94%29.83 "Hg4 mi
2:30 AM50 °FClear.3 mph88%29.83 "Hg4 mi
2:00 AM50 °FClear.5 mph94%29.83 "Hg5 mi
1:30 AM50 °FClear.3 mph88%29.86 "Hg6 mi
1:00 AM50 °FClear.5 mph88%29.86 "Hg10 mi
12:30 AM50 °FClear.3 mph88%29.86 "Hg10 mi
12:00 AM50 °FClear.3 mph88%29.86 "Hg10 mi
11:30 PM
Thu, May 5
52 °FClear.3 mph82%29.89 "Hg10 mi
11:00 PM52 °FClear.3 mph82%29.89 "Hg10 mi
10:30 PM54 °FSunny.2 mph77%29.89 "Hg10 mi
10:00 PM55 °FSunny.3 mph72%29.89 "Hg10 mi
9:30 PM57 °FPassing clouds.5 mph63%29.89 "HgN/A
9:00 PM59 °FSunny.7 mph59%29.86 "Hg10 mi
8:30 PM61 °FPassing clouds.9 mph55%29.86 "HgN/A
8:00 PM63 °FPassing clouds.10 mph49%29.86 "HgN/A
7:30 PM64 °FPassing clouds.10 mph52%29.86 "HgN/A
7:00 PM64 °FSunny.12 mph56%29.89 "Hg10 mi
6:30 PM64 °FSunny.12 mph56%29.89 "Hg10 mi
6:00 PM66 °FPassing clouds.10 mph46%29.89 "HgN/A
5:30 PM66 °FPassing clouds.12 mph49%29.89 "HgN/A
5:00 PM68 °FPassing clouds.12 mph46%29.89 "HgN/A
4:30 PM68 °FPassing clouds.10 mph46%29.92 "HgN/A
4:00 PM68 °FSunny.13 mph46%29.92 "Hg10 mi
3:30 PM70 °FPassing clouds.12 mph40%29.92 "HgN/A
3:00 PM70 °FPassing clouds.13 mph38%29.95 "HgN/A
2:30 PM70 °FPassing clouds.9 mph35%29.95 "HgN/A
2:00 PM70 °FPassing clouds.8 mph33%29.95 "HgN/A
1:30 PM70 °FSunny.12 mph35%29.95 "Hg10 mi
1:00 PM68 °FSunny.12 mph35%29.98 "Hg10 mi
12:30 PM68 °FPassing clouds.10 mph35%29.98 "HgN/A
12:00 PM68 °FPassing clouds.9 mph35%29.98 "HgN/A
11:30 AM66 °FPassing clouds.8 mph37%30.01 "HgN/A
11:00 AM66 °FPassing clouds.7 mph40%30.01 "HgN/A
10:30 AM64 °FPassing clouds.7 mph40%30.01 "HgN/A
10:00 AM61 °FSunny.7 mph45%30.04 "Hg10 mi
9:30 AM59 °FSunny.7 mph51%30.04 "Hg10 mi
9:00 AM55 °FSunny.6 mph59%30.04 "Hg10 mi
8:30 AM54 °FSunny.7 mph63%30.04 "Hg10 mi
8:00 AM50 °FSunny.9 mph67%30.04 "Hg10 mi
Weather by CustomWeather, © 2016

See weather overviewHow to use our weather pages